EW7285 Weather Reports


Display with metric or nautical units.
time (UTC)temp
F
wind
direction
speed
MPH
gust
MPH
rain 1hr
in
rain 24hr
in
rain mn
in
humidity
%
barometer
mb
20260903100010 60 242 11.0 15.0 0.00 0.00 0.00 61 1003.8
20260903094507 60 196 9.0 20.0 0.00 0.00 0.00 62 1003.8
20260903093014 59 252 8.0 17.0 0.00 0.00 0.00 64 1003.9
20260903091505 59 229 10.0 16.0 0.00 0.00 0.00 64 1003.9
20260903090002 59 214 6.0 13.0 0.00 0.00 0.00 66 1003.8
20260903084557 59 229 7.0 13.0 0.00 0.00 0.00 68 1003.9
20260903083054 58 242 7.0 17.0 0.00 0.00 0.00 69 1004.0
20260903081554 58 266 7.0 17.0 0.00 0.00 0.00 70 1004.1
20260903080048 58 200 6.0 13.0 0.00 0.00 0.00 72 1004.2
20260903074547 57 228 7.0 17.0 0.00 0.00 0.00 73 1004.2
20260903073057 57 234 6.0 16.0 0.00 0.00 0.00 75 1004.3
20260903071546 57 196 9.0 16.0 0.00 0.00 0.00 75 1004.2
20260903070043 56 256 7.0 20.0 0.00 0.00 0.00 77 1004.2
20260903064542 56 229 8.0 15.0 0.00 0.00 0.00 79 1004.1
20260903063043 55 222 8.0 15.0 0.00 0.00 0.00 81 1004.1
20260903061541 55 247 7.0 15.0 0.00 0.00 0.00 82 1004.1
20260903060039 55 171 5.0 15.0 0.00 0.00 0.00 85 1004.1
20260903054538 54 198 6.0 12.0 0.00 0.00 0.00 86 1004.1
20260903053038 54 224 8.0 12.0 0.00 0.00 0.00 87 1004.1
20260903051543 53 225 3.0 8.0 0.00 0.00 0.00 88 1004.1
20260903050035 52 196 4.0 7.0 0.00 0.00 0.00 88 1004.1
20260903044537 52 165 3.0 6.0 0.00 0.00 0.00 88 1004.1
20260903043036 52 185 4.0 8.0 0.00 0.00 0.00 88 1004.2
20260903041534 52 151 4.0 8.0 0.00 0.00 0.00 88 1004.3
20260903040029 52 168 5.0 8.0 0.00 0.00 0.00 87 1004.4
20260903034527 52 175 5.0 7.0 0.00 0.00 0.00 87 1004.4
20260903033025 52 177 4.0 7.0 0.00 0.00 0.00 86 1004.4
20260903031531 53 169 4.0 7.0 0.00 0.00 0.00 85 1004.4
20260903030022 53 173 3.0 8.0 0.00 0.00 0.00 85 1004.4
20260903024520 53 200 5.0 9.0 0.00 0.00 0.00 85 1004.4
20260903023025 53 180 4.0 10.0 0.00 0.00 0.00 84 1004.5
20260903021534 54 186 4.0 9.0 0.00 0.00 0.00 83 1004.6
20260903020016 54 192 4.0 9.0 0.00 0.00 0.00 83 1004.7
20260903014511 54 179 4.0 8.0 0.00 0.00 0.00 82 1004.8
20260903013013 54 168 5.0 10.0 0.00 0.00 0.00 82 1004.8
20260903011508 54 186 5.0 10.0 0.00 0.00 0.00 81 1004.9
20260903010003 54 200 4.0 9.0 0.00 0.01 0.00 81 1004.9
20260903004600 54 175 5.0 9.0 0.00 0.01 0.00 81 1005.1
20260903003059 55 203 2.0 9.0 0.00 0.01 0.00 80 1005.1
20260903001556 55 163 4.0 7.0 0.00 0.01 0.00 80 1005.2
20260903000053 55 180 4.0 7.0 0.00 0.01 0.00 79 1005.1
20260902234551 55 187 3.0 6.0 0.00 0.01 0.00 78 1005.1
20260902233048 56 205 3.0 7.0 0.00 0.01 0.00 78 1005.1
20260902231557 56 171 3.0 7.0 0.00 0.01 0.00 77 1005.2
20260902230045 56 208 4.0 7.0 0.00 0.01 0.00 77 1005.1
20260902224543 56 190 4.0 6.0 0.00 0.01 0.00 76 1005.2
20260902223041 56 157 3.0 7.0 0.00 0.01 0.00 75 1005.2
20260902221550 57 188 3.0 6.0 0.00 0.01 0.00 74 1005.3
20260902220035 57 180 4.0 7.0 0.00 0.01 0.00 73 1005.3
20260902214536 58 163 4.0 10.0 0.00 0.01 0.01 72 1005.3
20260902213036 58 193 5.0 8.0 0.00 0.01 0.01 71 1005.3
20260902211535 58 179 3.0 8.0 0.00 0.01 0.01 69 1005.3
20260902210037 58 210 5.0 11.0 0.00 0.01 0.01 68 1005.3
20260902204531 58 198 4.0 8.0 0.00 0.01 0.01 67 1005.4
20260902203031 59 181 2.0 7.0 0.00 0.01 0.01 66 1005.4
20260902201531 59 198 3.0 8.0 0.00 0.01 0.01 65 1005.4
20260902200030 59 240 4.0 7.0 0.00 0.01 0.01 64 1005.4
20260902194528 60 227 4.0 10.0 0.00 0.01 0.01 62 1005.4
20260902193028 60 233 5.0 12.0 0.00 0.01 0.01 60 1005.5
20260902191527 60 200 4.0 11.0 0.00 0.01 0.01 60 1005.4
20260902190028 61 204 5.0 10.0 0.00 0.01 0.01 60 1005.4
20260902184524 61 186 7.0 11.0 0.00 0.01 0.01 61 1005.4
20260902183025 61 207 4.0 10.0 0.00 0.01 0.01 60 1005.4
20260902181524 62 209 8.0 15.0 0.00 0.01 0.01 58 1005.4
20260902180023 62 235 9.0 15.0 0.00 0.01 0.01 57 1005.3
20260902174522 62 227 9.0 14.0 0.00 0.01 0.01 55 1005.2
20260902173021 63 227 8.0 16.0 0.00 0.01 0.01 53 1005.1
20260902171522 64 255 9.0 20.0 0.00 0.01 0.01 52 1005.0
20260902170020 65 227 7.0 16.0 0.00 0.01 0.01 51 1004.9
20260902164518 66 223 5.0 12.0 0.00 0.01 0.01 52 1004.7
20260902163020 67 228 4.0 10.0 0.00 0.01 0.01 53 1004.6
20260902161515 67 231 7.0 14.0 0.00 0.01 0.01 55 1004.5
20260902160023 68 175 6.0 10.0 0.00 0.01 0.01 59 1004.4
20260902154512 68 214 7.0 12.0 0.00 0.01 0.01 60 1004.4
20260902153008 68 239 4.0 10.0 0.00 0.01 0.01 63 1004.5
20260902151506 68 190 5.0 12.0 0.00 0.01 0.01 62 1004.5
20260902150004 67 230 6.0 9.0 0.00 0.09 0.01 66 1004.8
20260902144502 66 223 5.0 8.0 0.00 0.09 0.01 66 1004.8
20260902143001 67 213 3.0 10.0 0.00 0.09 0.01 67 1004.9
20260902141600 67 174 8.0 14.0 0.00 0.09 0.01 67 1005.0
20260902140104 66 153 6.0 10.0 0.00 0.09 0.01 69 1005.0
20260902134558 67 170 6.0 21.0 0.00 0.09 0.01 67 1005.1
20260902133056 67 182 7.0 14.0 0.00 0.09 0.01 67 1005.2
20260902131553 66 192 9.0 16.0 0.00 0.09 0.01 70 1005.4
20260902130053 66 202 7.0 11.0 0.00 0.09 0.01 70 1005.4
20260902124549 66 250 6.0 12.0 0.00 0.09 0.01 70 1005.5
20260902123049 65 247 6.0 15.0 0.00 0.09 0.01 71 1005.7
20260902121548 65 240 6.0 13.0 0.00 0.09 0.01 72 1005.7
20260902120043 65 244 5.0 10.0 0.00 0.09 0.01 74 1005.9
20260902114609 64 245 5.0 9.0 0.00 0.09 0.01 73 1006.0
20260902113043 64 213 5.0 8.0 0.00 0.09 0.01 73 1006.1
20260902111538 65 187 4.0 10.0 0.00 0.09 0.01 73 1006.2
20260902110037 64 216 7.0 11.0 0.00 0.09 0.01 73 1006.2
20260902104536 64 216 9.0 15.0 0.00 0.09 0.01 71 1006.3
20260902103034 65 219 9.0 15.0 0.00 0.09 0.01 72 1006.4
20260902101533 64 220 7.0 14.0 0.00 0.09 0.01 74 1006.5